COSMOS 2251 DEB, 34396

Orbit data source: Space-Track

COSMOS 2251 DEB, 34396 is space debris in LEO originally from a launch on Wed, 16 Jun 1993 UTC launched from the Plesetsk Missile And Space Complex (PKMTR). The debris from Iridium 33, an American commercial communications satellite, has been tracked extensively since its accidental collision with the defunct Russian satellite Cosmos 2251 in 2009. This event, occurring at high speed in low Earth orbit (LEO), generated thousands of pieces of space debris, significantly increasing the risk of further collisions. The Iridium 33 debris cloud has impacted space traffic management and orbital debris mitigation strategies, making it a subject of ongoing study in space situational awareness.

Loading next visibility...
Identifier
34396, 1993-036QM
Orbit
LEO
Country
Flag of CISCIS
Related business
Manufacturer
Unknown
Mission
Spacecraft
Bus & Motor
Unknown
Mass
Unknown
Launch date (UTC)
1993-06-16 (33 years ago)
Launch vehicle
Unknown
Launch site
Plesetsk Missile And Space Complex (PKMTR)
Object type
Payload
Rocket body
Debris
Shape & HBR
Unknown shape, 0.1 m
Radar Cross Section
Small (<0.1 m²)

Expand to show TLE details & history
Last TLE update: 1 day ago

TLE from 1 day ago
0 COSMOS 2251 DEB
1 34396U 93036QM  26033.95081494  .00015293  00000-0  22175-2 0  9999
2 34396  74.0291  21.9206 0004781  12.6960  17.7977 14.76049370891168
Epoch: 2026-02-02T22:49Z
TLE epoch observation values (Epoch: 2026-02-02T22:49:10.410Z)
Latitude
29.27176°
Longitude
-84.33067°
Altitude
641.985 km
Speed
7.542 km/s
True Right ascension
02h 04m 24s
True Declination
29° 07' 22"
Sunlit
Object was in daylight at epoch
Visualization orbit readout
Latitude
Unknown
Longitude
Unknown
Altitude
Unknown
Speed
Unknown
Apparent Right ascension
Unknown
Apparent Declination
Unknown
Sunlit
N/A
Visualization observer readout
Local Sidereal Time
06:10:17
Azimuth
Unknown
Elevation
Unknown
Doppler factor
Unknown
Orbital elements
Apogee altitude
642.758 km
Perigee altitude
636.048 km
Semi-major axis
7,017.54 km
Eccentricity
0.00048
Inclination
74.0291°
RAAN
21.9206°
Arg. of periapsis
12.696°
True anomaly
17.81446°
Mean anomaly
17.7977°
Eccentric anomaly
17.80608°
Mean motion
3.69204 °/min
Orbital period
97.51 mins
BSTAR
0.0022175
Loading maneuver chart data...
Computing Atmospheric mass density...
Loading historical data...
Loading historical data...
Loading historical data...
Loading historical data...
Loading historical data...
Loading historical data...
Loading historical data...

Documentation

Showing up to 5 results
|